BEIDOU-3 M23 (C45)

Last updated on Tue Sep 16 2025 00:03:24 GMT+0000 (Coordinated Universal Time)

1 44543U 19061B 25258.16284954 -.00000013 00000+0 00000+0 0 9991 2 44543 54.4048 191.9725 0005716 349.7019 176.7894 1.86229379 40679
UTC large
Height (km)
Speed (km/s)
/
Latitude / Longitude
Inclination (degrees)
Orbital Period (minutes)
Azimuth
Elevation
Range (km)
Doppler Factor

Next 0 passes for location: London (51.5072 / 0.1276)

Sorry there are no passes over London.